Weather History for Pellston, MI

Change the Weather History Date:

Friday, October 19, 2012

  Actual Average Record
Temperature  
Mean Temperature 44 °F -  
Max Temperature 52 °F 51 °F 79 °F (1965)
Min Temperature 37 °F 33 °F 21 °F (1959)
Degree Days  
Heating Degree Days 20    
Moisture  
Dew Point 41 °F    
Average Humidity 91    
Maximum Humidity 100    
Minimum Humidity 77    
Precipitation  
Precipitation 0.27 in - - ()
Sea Level Pressure  
Sea Level Pressure 29.62 in    
Wind  
Wind Speed 4 mph (SE)    
Max Wind Speed 13 mph    
Max Gust Speed -    
Visibility 6 miles    
Events Rain , Thunderstorm    
Averages and records for this station are not official NWS values.
T = Trace of Precipitation, MM = Missing Value Source: NWS Daily Summary

Daily Weather History Graph

Daily Weather History Graph

Search for Another Location

Airport:

Trip Planner

Search our weather history database for the weather conditions in past years. The results will help you decide how hot, cold, wet, or windy it might be!

Date:

Astronomy

Oct. 19, 2012 Rise Set
Actual Time 8:01 AM EDT 6:45 PM EDT
Civil Twilight 7:31 AM EDT 7:15 PM EDT
Nautical Twilight 6:56 AM EDT 7:50 PM EDT
Astronomical Twilight 6:22 AM EDT 8:24 PM EDT
Moon 12:54 PM EDT (10/19) 10:13 PM EDT (10/19)
Length of Visible Light 11h 44m
Length of Day
10h 44m
Waxing Crescent, 23% of the Moon is Illuminated
Oct 19
Waxing Crescent
Oct 21
First Quarter
Oct 29
Full
Nov 6
Last Quarter
Nov 13
New

Hourly Weather History & Observations

Time (EDT) Temp. Windchill Dew Point Humidity Pressure Visibility Wind Dir Wind Speed Gust Speed Precip Events Conditions
12:54 AM 45.0 °F 42.6 °F 39.9 °F 82% 29.63 in 10.0 mi SE 4.6 mph - N/A   Overcast
1:54 AM 45.0 °F 42.6 °F 39.9 °F 82% 29.61 in 10.0 mi ESE 4.6 mph - N/A   Overcast
2:54 AM 45.0 °F 42.6 °F 39.9 °F 82% 29.61 in 10.0 mi SSE 4.6 mph - N/A   Overcast
3:54 AM 43.0 °F 40.3 °F 39.9 °F 89% 29.62 in 10.0 mi ESE 4.6 mph - N/A   Overcast
4:54 AM 43.0 °F - 39.9 °F 89% 29.61 in 10.0 mi Calm Calm - N/A   Mostly Cloudy
5:54 AM 39.9 °F 37.8 °F 37.9 °F 93% 29.64 in 10.0 mi South 3.5 mph - N/A   Overcast
6:54 AM 41.0 °F - 39.0 °F 93% 29.63 in 10.0 mi Calm Calm - N/A   Overcast
7:54 AM 39.9 °F - 39.0 °F 97% 29.65 in 10.0 mi Calm Calm - N/A   Overcast
8:54 AM 44.1 °F - 41.0 °F 89% 29.65 in 10.0 mi Calm Calm - 0.00 in   Overcast
9:54 AM 46.0 °F - 43.0 °F 89% 29.64 in 10.0 mi Calm Calm - N/A   Overcast
10:54 AM 50.0 °F - 43.0 °F 77% 29.64 in 10.0 mi ESE 5.8 mph - N/A   Clear
11:54 AM 52.0 °F - 46.0 °F 80% 29.62 in 10.0 mi East 4.6 mph - 0.00 in Rain Light Rain
12:54 PM 51.1 °F - 45.0 °F 80% 29.62 in 9.0 mi SSE 5.8 mph - 0.01 in Rain Light Rain
1:12 PM 48.2 °F - 44.6 °F 87% 29.62 in 1.8 mi SSE 9.2 mph - 0.06 in Rain Heavy Rain
1:16 PM 48.2 °F - 44.6 °F 87% 29.62 in 1.8 mi SSE 11.5 mph - 0.07 in Rain , Thunderstorm Rain
1:19 PM 48.2 °F - 44.6 °F 87% 29.62 in 2.0 mi SSE 12.7 mph - 0.08 in Rain , Thunderstorm Rain
1:28 PM 48.2 °F - 44.6 °F 87% 29.61 in 4.0 mi SE 10.4 mph - 0.10 in Rain , Thunderstorm Thunderstorms and Rain
1:54 PM 46.9 °F - 43.0 °F 86% 29.62 in 8.0 mi ESE 12.7 mph - 0.13 in Rain Light Rain
2:54 PM 48.0 °F - 44.1 °F 86% 29.60 in 9.0 mi ESE 11.5 mph - 0.01 in Rain Light Rain
3:54 PM 48.0 °F - 45.0 °F 89% 29.60 in 10.0 mi ESE 6.9 mph - 0.01 in Rain Light Rain
4:54 PM 48.9 °F - 46.0 °F 90% 29.60 in 10.0 mi Calm Calm - 0.00 in   Overcast
5:54 PM 48.9 °F - 45.0 °F 86% 29.61 in 10.0 mi ESE 5.8 mph - 0.04 in   Overcast
6:54 PM 46.9 °F - 44.1 °F 90% 29.62 in 10.0 mi East 8.1 mph - 0.01 in Rain Light Rain
7:54 PM 46.0 °F - 44.1 °F 93% 29.62 in 9.0 mi Calm Calm - 0.06 in Rain Light Rain
8:47 PM 42.8 °F - 41.0 °F 93% 29.61 in 1.5 mi Calm Calm - 0.00 in   Partly Cloudy
8:54 PM 42.1 °F - 41.0 °F 96% 29.63 in 1.0 mi Calm Calm - 0.00 in   Mist
8:57 PM 41.0 °F - 41.0 °F 100% 29.61 in 2.0 mi Calm Calm - N/A   Partly Cloudy
9:10 PM 39.2 °F - 39.2 °F 100% 29.61 in 1.5 mi Calm Calm - N/A   Partly Cloudy
9:16 PM 41.0 °F - 39.2 °F 93% 29.62 in 3.0 mi Calm Calm - N/A   Partly Cloudy
9:43 PM 39.2 °F - 39.2 °F 100% 29.62 in 1.8 mi Calm Calm - N/A   Mostly Cloudy
9:54 PM 39.9 °F - 39.0 °F 97% 29.64 in 1.0 mi Calm Calm - N/A   Partly Cloudy
10:07 PM 39.2 °F - 37.4 °F 93% 29.62 in 2.5 mi Calm Calm - N/A   Mostly Cloudy
10:12 PM 39.2 °F - 37.4 °F 93% 29.62 in 4.0 mi Calm Calm - N/A   Mostly Cloudy
10:26 PM 39.2 °F - 37.4 °F 93% 29.62 in 10.0 mi Calm Calm - N/A   Mostly Cloudy
10:36 PM 39.2 °F - 37.4 °F 93% 29.62 in 10.0 mi Calm Calm - N/A   Scattered Clouds
10:44 PM 37.4 °F - 37.4 °F 100% 29.62 in 1.8 mi Calm Calm - N/A   Scattered Clouds
10:48 PM 37.4 °F - 37.4 °F 100% 29.62 in 0.8 mi Calm Calm - N/A   Mist
10:54 PM 37.9 °F - 37.9 °F 100% 29.63 in 0.8 mi Calm Calm - N/A   Mist
11:02 PM 37.4 °F - 37.4 °F 100% 29.62 in 1.0 mi Calm Calm - N/A   Clear
11:49 PM 37.4 °F - 35.6 °F 93% 29.61 in 1.2 mi Calm Calm - N/A   Mostly Cloudy
11:54 PM 37.0 °F - 37.0 °F 100% 29.62 in 1.0 mi Calm Calm - N/A   Mist